Time,TemperatureF,DewpointF,PressureIn,WindDirection,WindDirectionDegrees,WindSpeedMPH,WindSpeedGustMPH,Humidity,HourlyPrecipIn,Conditions,Clouds,dailyrainin,SoftwareType,DateUTC
2013-01-16 00:03:00,23.1,17.8,29.76,WSW,250,3.0,3.0,80,0.00,,,0.00,Wunderground v.1.15,2013-01-16 06:03:00,
2013-01-16 00:08:00,23.1,17.8,29.76,West,269,3.0,4.0,80,0.00,,,0.00,Wunderground v.1.15,2013-01-16 06:08:00,
2013-01-16 00:13:00,23.1,17.8,29.75,WSW,243,3.0,4.0,80,0.00,,,0.00,Wunderground v.1.15,2013-01-16 06:13:00,
2013-01-16 00:18:00,23.1,17.8,29.75,West,267,3.0,4.0,80,0.00,,,0.00,Wunderground v.1.15,2013-01-16 06:18:00,
2013-01-16 00:24:00,23.1,17.8,29.75,SW,218,3.0,4.0,80,0.00,,,0.00,Wunderground v.1.15,2013-01-16 06:24:00,
2013-01-16 00:29:00,23.0,17.7,29.74,WSW,243,3.0,4.0,80,0.00,,,0.00,Wunderground v.1.15,2013-01-16 06:29:00,
2013-01-16 00:34:00,22.9,17.7,29.74,West,271,3.0,3.0,80,0.00,,,0.00,Wunderground v.1.15,2013-01-16 06:34:00,
2013-01-16 00:39:00,22.9,17.9,29.73,SW,220,3.0,5.0,81,0.00,,,0.00,Wunderground v.1.15,2013-01-16 06:39:00,
2013-01-16 00:44:00,22.8,17.8,29.73,West,277,2.0,4.0,81,0.00,,,0.00,Wunderground v.1.15,2013-01-16 06:44:00,
2013-01-16 00:50:00,22.8,17.8,29.72,WSW,248,3.0,3.0,81,0.00,,,0.00,Wunderground v.1.15,2013-01-16 06:50:00,
2013-01-16 00:55:00,23.0,18.0,29.71,SW,214,3.0,5.0,81,0.00,,,0.00,Wunderground v.1.15,2013-01-16 06:55:00,
2013-01-16 01:00:00,23.0,18.0,29.71,West,271,3.0,5.0,81,0.00,,,0.00,Wunderground v.1.15,2013-01-16 07:00:00,
2013-01-16 01:05:00,23.1,18.1,29.70,SW,225,3.0,5.0,81,0.00,,,0.00,Wunderground v.1.15,2013-01-16 07:05:00,
2013-01-16 01:10:00,23.2,18.2,29.70,West,269,4.0,4.0,81,0.00,,,0.00,Wunderground v.1.15,2013-01-16 07:10:00,
2013-01-16 01:16:00,23.2,18.2,29.70,WNW,289,3.0,6.0,81,0.00,,,0.00,Wunderground v.1.15,2013-01-16 07:16:00,
2013-01-16 01:21:00,23.2,18.2,29.70,WSW,258,3.0,4.0,81,0.00,,,0.00,Wunderground v.1.15,2013-01-16 07:21:00,
2013-01-16 01:26:00,23.3,18.3,29.69,SW,215,4.0,4.0,81,0.00,,,0.00,Wunderground v.1.15,2013-01-16 07:26:00,
2013-01-16 01:31:00,23.2,18.2,29.69,SSW,207,3.0,3.0,81,0.00,,,0.00,Wunderground v.1.15,2013-01-16 07:31:00,
2013-01-16 01:36:00,23.4,18.4,29.69,South,183,3.0,6.0,81,0.00,,,0.00,Wunderground v.1.15,2013-01-16 07:36:00,
2013-01-16 01:42:00,23.5,18.2,29.69,SW,232,4.0,5.0,80,0.00,,,0.00,Wunderground v.1.15,2013-01-16 07:42:00,
2013-01-16 01:47:00,23.6,18.3,29.68,SW,224,4.0,5.0,80,0.00,,,0.00,Wunderground v.1.15,2013-01-16 07:47:00,
2013-01-16 01:52:00,23.8,18.5,29.68,SW,232,4.0,8.0,80,0.00,,,0.00,Wunderground v.1.15,2013-01-16 07:52:00,
2013-01-16 01:57:00,23.8,18.5,29.68,West,261,3.0,8.0,80,0.00,,,0.00,Wunderground v.1.15,2013-01-16 07:57:00,
2013-01-16 02:02:00,23.8,18.5,29.67,WSW,255,3.0,7.0,80,0.00,,,0.00,Wunderground v.1.15,2013-01-16 08:02:00,
2013-01-16 02:08:00,24.0,18.7,29.67,West,259,3.0,7.0,80,0.00,,,0.00,Wunderground v.1.15,2013-01-16 08:08:00,
2013-01-16 02:13:00,24.0,18.7,29.67,WSW,252,4.0,5.0,80,0.00,,,0.00,Wunderground v.1.15,2013-01-16 08:13:00,
2013-01-16 02:18:00,24.1,18.5,29.66,West,260,4.0,5.0,79,0.00,,,0.00,Wunderground v.1.15,2013-01-16 08:18:00,
2013-01-16 02:23:00,24.2,18.6,29.66,SW,218,3.0,6.0,79,0.00,,,0.00,Wunderground v.1.15,2013-01-16 08:23:00,
2013-01-16 02:28:00,24.2,18.6,29.67,West,266,3.0,6.0,79,0.00,,,0.00,Wunderground v.1.15,2013-01-16 08:28:00,
2013-01-16 02:34:00,24.3,18.7,29.67,SW,230,3.0,3.0,79,0.00,,,0.00,Wunderground v.1.15,2013-01-16 08:34:00,
2013-01-16 02:39:00,24.3,18.7,29.67,SSW,210,3.0,5.0,79,0.00,,,0.00,Wunderground v.1.15,2013-01-16 08:39:00,
2013-01-16 02:44:00,24.5,18.9,29.66,WSW,238,4.0,5.0,79,0.00,,,0.00,Wunderground v.1.15,2013-01-16 08:44:00,
2013-01-16 02:49:00,24.6,19.0,29.65,WSW,238,4.0,5.0,79,0.00,,,0.00,Wunderground v.1.15,2013-01-16 08:49:00,
2013-01-16 02:54:00,24.6,19.0,29.66,WSW,251,3.0,6.0,79,0.00,,,0.00,Wunderground v.1.15,2013-01-16 08:54:00,
2013-01-16 03:00:00,24.7,19.1,29.65,West,259,3.0,4.0,79,0.00,,,0.00,Wunderground v.1.15,2013-01-16 09:00:00,
2013-01-16 03:05:00,24.6,19.0,29.64,WSW,250,3.0,4.0,79,0.00,,,0.00,Wunderground v.1.15,2013-01-16 09:05:00,
2013-01-16 03:10:00,24.6,19.3,29.63,West,262,3.0,3.0,80,0.00,,,0.00,Wunderground v.1.15,2013-01-16 09:10:00,
2013-01-16 03:15:00,24.6,19.3,29.63,WSW,256,3.0,4.0,80,0.00,,,0.00,Wunderground v.1.15,2013-01-16 09:15:00,
2013-01-16 03:20:00,24.6,19.6,29.63,WSW,244,4.0,4.0,81,0.00,,,0.00,Wunderground v.1.15,2013-01-16 09:20:00,
2013-01-16 03:26:00,24.5,19.8,29.63,WSW,242,5.0,7.0,82,0.00,,,0.00,Wunderground v.1.15,2013-01-16 09:26:00,
2013-01-16 03:31:00,24.4,19.7,29.62,West,260,4.0,5.0,82,0.00,,,0.00,Wunderground v.1.15,2013-01-16 09:31:00,
2013-01-16 03:36:00,24.5,19.8,29.61,West,262,4.0,6.0,82,0.00,,,0.00,Wunderground v.1.15,2013-01-16 09:36:00,
2013-01-16 03:41:00,24.5,19.8,29.61,SW,226,4.0,4.0,82,0.00,,,0.00,Wunderground v.1.15,2013-01-16 09:41:00,
2013-01-16 03:46:00,24.6,19.9,29.61,WSW,248,4.0,6.0,82,0.00,,,0.00,Wunderground v.1.15,2013-01-16 09:46:00,
2013-01-16 03:52:00,24.7,20.0,29.61,WSW,239,4.0,4.0,82,0.00,,,0.00,Wunderground v.1.15,2013-01-16 09:52:00,
2013-01-16 03:57:00,24.7,20.0,29.61,WSW,253,3.0,6.0,82,0.00,,,0.00,Wunderground v.1.15,2013-01-16 09:57:00,
2013-01-16 04:02:00,24.8,20.1,29.61,WSW,250,3.0,3.0,82,0.00,,,0.00,Wunderground v.1.15,2013-01-16 10:02:00,
2013-01-16 04:07:00,24.9,20.5,29.61,West,259,3.0,8.0,83,0.00,,,0.00,Wunderground v.1.15,2013-01-16 10:07:00,
2013-01-16 04:12:00,24.9,20.8,29.61,West,263,3.0,5.0,84,0.00,,,0.00,Wunderground v.1.15,2013-01-16 10:12:00,
2013-01-16 04:17:00,24.9,21.0,29.60,West,259,4.0,5.0,85,0.00,,,0.00,Wunderground v.1.15,2013-01-16 10:17:00,
2013-01-16 04:22:00,24.8,20.9,29.59,West,264,4.0,4.0,85,0.00,,,0.00,Wunderground v.1.15,2013-01-16 10:22:00,
2013-01-16 04:27:00,24.8,21.2,29.59,WSW,252,4.0,5.0,86,0.00,,,0.00,Wunderground v.1.15,2013-01-16 10:27:00,
2013-01-16 04:32:00,24.8,21.2,29.59,WSW,248,4.0,5.0,86,0.00,,,0.00,Wunderground v.1.15,2013-01-16 10:32:00,
2013-01-16 04:37:00,24.8,21.5,29.59,WSW,257,3.0,5.0,87,0.00,,,0.00,Wunderground v.1.15,2013-01-16 10:37:00,
2013-01-16 04:42:00,24.8,21.5,29.60,West,269,3.0,4.0,87,0.00,,,0.00,Wunderground v.1.15,2013-01-16 10:42:00,
2013-01-16 04:47:00,24.8,21.5,29.60,WSW,251,3.0,4.0,87,0.00,,,0.00,Wunderground v.1.15,2013-01-16 10:47:00,
2013-01-16 04:53:00,25.0,21.7,29.60,WSW,242,4.0,4.0,87,0.00,,,0.00,Wunderground v.1.15,2013-01-16 10:53:00,
2013-01-16 04:58:00,25.2,21.9,29.60,West,264,4.0,4.0,87,0.00,,,0.00,Wunderground v.1.15,2013-01-16 10:58:00,
2013-01-16 05:03:00,25.3,22.0,29.59,West,269,3.0,4.0,87,0.00,,,0.00,Wunderground v.1.15,2013-01-16 11:03:00,
2013-01-16 05:08:00,25.5,22.2,29.59,WSW,252,3.0,6.0,87,0.00,,,0.00,Wunderground v.1.15,2013-01-16 11:08:00,
2013-01-16 05:13:00,25.7,22.4,29.59,West,259,3.0,4.0,87,0.00,,,0.00,Wunderground v.1.15,2013-01-16 11:13:00,
2013-01-16 05:19:00,25.9,22.3,29.59,WSW,252,4.0,5.0,86,0.00,,,0.00,Wunderground v.1.15,2013-01-16 11:19:00,
2013-01-16 05:24:00,26.2,22.9,29.58,SW,224,5.0,6.0,87,0.00,,,0.00,Wunderground v.1.15,2013-01-16 11:24:00,
2013-01-16 05:29:00,26.3,23.0,29.59,WSW,258,5.0,6.0,87,0.00,,,0.00,Wunderground v.1.15,2013-01-16 11:29:00,
2013-01-16 05:34:00,26.4,23.3,29.58,West,276,4.0,8.0,88,0.00,,,0.00,Wunderground v.1.15,2013-01-16 11:34:00,
2013-01-16 05:39:00,26.4,23.3,29.58,West,271,4.0,8.0,88,0.00,,,0.00,Wunderground v.1.15,2013-01-16 11:39:00,
2013-01-16 05:45:00,26.5,23.4,29.59,SSW,193,5.0,9.0,88,0.00,,,0.00,Wunderground v.1.15,2013-01-16 11:45:00,
2013-01-16 05:50:00,26.6,23.8,29.59,West,268,6.0,6.0,89,0.00,,,0.00,Wunderground v.1.15,2013-01-16 11:50:00,
2013-01-16 05:55:00,26.6,23.8,29.58,WSW,253,5.0,6.0,89,0.00,,,0.00,Wunderground v.1.15,2013-01-16 11:55:00,
2013-01-16 06:00:00,26.5,24.0,29.58,West,263,5.0,6.0,90,0.00,,,0.00,Wunderground v.1.15,2013-01-16 12:00:00,
2013-01-16 06:05:00,26.4,24.1,29.58,West,280,4.0,6.0,91,0.00,,,0.00,Wunderground v.1.15,2013-01-16 12:05:00,
2013-01-16 06:11:00,26.4,24.4,29.59,West,264,4.0,4.0,92,0.00,,,0.00,Wunderground v.1.15,2013-01-16 12:11:00,
2013-01-16 06:16:00,26.4,24.4,29.58,WSW,242,4.0,4.0,92,0.00,,,0.00,Wunderground v.1.15,2013-01-16 12:16:00,
2013-01-16 06:21:00,26.4,24.4,29.58,WSW,240,3.0,3.0,92,0.00,,,0.00,Wunderground v.1.15,2013-01-16 12:21:00,
2013-01-16 06:26:00,26.5,24.8,29.59,WSW,250,3.0,4.0,93,0.00,,,0.00,Wunderground v.1.15,2013-01-16 12:26:00,
2013-01-16 06:31:00,26.5,24.8,29.60,West,269,3.0,4.0,93,0.00,,,0.00,Wunderground v.1.15,2013-01-16 12:31:00,
2013-01-16 06:37:00,26.6,24.8,29.60,WSW,257,4.0,5.0,93,0.00,,,0.00,Wunderground v.1.15,2013-01-16 12:37:00,
2013-01-16 06:42:00,26.7,24.9,29.59,WSW,255,4.0,4.0,93,0.00,,,0.00,Wunderground v.1.15,2013-01-16 12:42:00,
2013-01-16 06:47:00,26.7,24.9,29.59,West,259,3.0,4.0,93,0.00,,,0.00,Wunderground v.1.15,2013-01-16 12:47:00,
2013-01-16 06:52:00,26.8,25.0,29.60,WSW,257,3.0,4.0,93,0.00,,,0.00,Wunderground v.1.15,2013-01-16 12:52:00,
2013-01-16 06:57:00,26.9,25.1,29.60,West,270,3.0,4.0,93,0.00,,,0.00,Wunderground v.1.15,2013-01-16 12:57:00,
2013-01-16 07:03:00,27.1,25.3,29.60,West,269,3.0,3.0,93,0.00,,,0.00,Wunderground v.1.15,2013-01-16 13:03:00,
2013-01-16 07:08:00,27.3,25.5,29.59,West,271,3.0,5.0,93,0.00,,,0.00,Wunderground v.1.15,2013-01-16 13:08:00,
2013-01-16 07:13:00,27.4,25.6,29.59,WSW,252,3.0,5.0,93,0.00,,,0.00,Wunderground v.1.15,2013-01-16 13:13:00,
2013-01-16 07:18:00,27.7,25.9,29.59,West,266,3.0,7.0,93,0.00,,,0.00,Wunderground v.1.15,2013-01-16 13:18:00,
2013-01-16 07:23:00,27.8,26.0,29.59,West,278,3.0,5.0,93,0.00,,,0.00,Wunderground v.1.15,2013-01-16 13:23:00,
2013-01-16 07:28:00,28.0,26.2,29.59,WSW,251,3.0,5.0,93,0.00,,,0.00,Wunderground v.1.15,2013-01-16 13:28:00,
2013-01-16 07:33:00,28.1,26.3,29.59,West,260,3.0,4.0,93,0.00,,,0.00,Wunderground v.1.15,2013-01-16 13:33:00,
2013-01-16 07:38:00,28.3,26.5,29.59,West,265,3.0,5.0,93,0.00,,,0.00,Wunderground v.1.15,2013-01-16 13:38:00,
2013-01-16 07:43:00,28.6,26.8,29.60,WSW,250,3.0,5.0,93,0.00,,,0.00,Wunderground v.1.15,2013-01-16 13:43:00,
2013-01-16 07:48:00,28.8,27.0,29.60,WSW,257,3.0,5.0,93,0.00,,,0.00,Wunderground v.1.15,2013-01-16 13:48:00,
2013-01-16 07:54:00,28.9,27.1,29.61,West,266,3.0,5.0,93,0.00,,,0.00,Wunderground v.1.15,2013-01-16 13:54:00,
2013-01-16 07:59:00,29.0,27.2,29.60,WSW,257,3.0,5.0,93,0.00,,,0.00,Wunderground v.1.15,2013-01-16 13:59:00,
2013-01-16 08:04:00,29.0,27.2,29.60,WSW,255,3.0,3.0,93,0.00,,,0.00,Wunderground v.1.15,2013-01-16 14:04:00,
2013-01-16 08:09:00,29.2,27.4,29.60,SW,233,3.0,4.0,93,0.00,,,0.00,Wunderground v.1.15,2013-01-16 14:09:00,
2013-01-16 08:14:00,29.3,27.5,29.61,West,260,3.0,4.0,93,0.00,,,0.00,Wunderground v.1.15,2013-01-16 14:14:00,
2013-01-16 08:19:00,29.5,27.7,29.61,West,274,3.0,5.0,93,0.00,,,0.00,Wunderground v.1.15,2013-01-16 14:19:00,
2013-01-16 08:25:00,29.7,27.9,29.62,West,264,3.0,3.0,93,0.00,,,0.00,Wunderground v.1.15,2013-01-16 14:25:00,
2013-01-16 08:30:00,29.9,28.1,29.62,WNW,285,3.0,4.0,93,0.00,,,0.00,Wunderground v.1.15,2013-01-16 14:30:00,
2013-01-16 08:35:00,30.2,28.4,29.62,WNW,287,4.0,4.0,93,0.00,,,0.00,Wunderground v.1.15,2013-01-16 14:35:00,
2013-01-16 08:40:00,30.3,28.5,29.62,WSW,257,3.0,3.0,93,0.00,,,0.00,Wunderground v.1.15,2013-01-16 14:40:00,
2013-01-16 08:45:00,30.4,28.6,29.63,WSW,257,3.0,5.0,93,0.00,,,0.00,Wunderground v.1.15,2013-01-16 14:45:00,
2013-01-16 08:51:00,30.6,28.8,29.63,WSW,256,3.0,3.0,93,0.00,,,0.00,Wunderground v.1.15,2013-01-16 14:51:00,
2013-01-16 08:56:00,30.7,28.9,29.63,West,263,3.0,4.0,93,0.00,,,0.00,Wunderground v.1.15,2013-01-16 14:56:00,
2013-01-16 09:01:00,30.8,29.0,29.62,WSW,255,3.0,3.0,93,0.00,,,0.00,Wunderground v.1.15,2013-01-16 15:01:00,
2013-01-16 09:06:00,30.9,29.1,29.63,WSW,255,3.0,4.0,93,0.00,,,0.00,Wunderground v.1.15,2013-01-16 15:06:00,
2013-01-16 09:11:00,31.2,29.4,29.63,West,270,3.0,5.0,93,0.00,,,0.00,Wunderground v.1.15,2013-01-16 15:11:00,
2013-01-16 09:17:00,31.5,29.7,29.63,WSW,248,3.0,5.0,93,0.00,,,0.00,Wunderground v.1.15,2013-01-16 15:17:00,
2013-01-16 09:22:00,31.9,30.1,29.62,West,280,3.0,4.0,93,0.00,,,0.00,Wunderground v.1.15,2013-01-16 15:22:00,
2013-01-16 09:27:00,32.1,30.3,29.62,West,266,3.0,5.0,93,0.00,,,0.00,Wunderground v.1.15,2013-01-16 15:27:00,
2013-01-16 09:32:00,32.4,30.3,29.62,WSW,255,3.0,4.0,92,0.00,,,0.00,Wunderground v.1.15,2013-01-16 15:32:00,
2013-01-16 09:37:00,32.6,30.5,29.63,West,262,3.0,4.0,92,0.00,,,0.00,Wunderground v.1.15,2013-01-16 15:37:00,
2013-01-16 09:43:00,33.0,30.9,29.63,West,280,3.0,4.0,92,0.00,,,0.00,Wunderground v.1.15,2013-01-16 15:43:00,
2013-01-16 09:48:00,33.4,31.3,29.64,WNW,299,4.0,5.0,92,0.00,,,0.00,Wunderground v.1.15,2013-01-16 15:48:00,
2013-01-16 09:53:00,33.9,31.8,29.63,WSW,249,5.0,8.0,92,0.00,,,0.00,Wunderground v.1.15,2013-01-16 15:53:00,
2013-01-16 09:58:00,34.4,32.0,29.64,West,277,6.0,8.0,91,0.00,,,0.00,Wunderground v.1.15,2013-01-16 15:58:00,
2013-01-16 10:03:00,34.7,32.3,29.63,West,271,6.0,8.0,91,0.00,,,0.00,Wunderground v.1.15,2013-01-16 16:03:00,
2013-01-16 10:09:00,34.9,32.3,29.63,West,269,6.0,9.0,90,0.00,,,0.00,Wunderground v.1.15,2013-01-16 16:09:00,
2013-01-16 10:14:00,35.1,32.2,29.63,West,278,5.0,6.0,89,0.00,,,0.00,Wunderground v.1.15,2013-01-16 16:14:00,
2013-01-16 10:19:00,35.3,32.4,29.64,West,264,5.0,8.0,89,0.00,,,0.00,Wunderground v.1.15,2013-01-16 16:19:00,
2013-01-16 10:24:00,35.5,32.6,29.64,West,281,6.0,9.0,89,0.00,,,0.00,Wunderground v.1.15,2013-01-16 16:24:00,
2013-01-16 10:29:00,35.7,32.5,29.64,West,278,7.0,9.0,88,0.00,,,0.00,Wunderground v.1.15,2013-01-16 16:29:00,
2013-01-16 10:35:00,35.9,32.7,29.64,West,263,7.0,8.0,88,0.00,,,0.00,Wunderground v.1.15,2013-01-16 16:35:00,
2013-01-16 10:40:00,36.2,33.0,29.65,West,277,7.0,7.0,88,0.00,,,0.00,Wunderground v.1.15,2013-01-16 16:40:00,
2013-01-16 10:45:00,36.2,32.7,29.65,WSW,256,7.0,9.0,87,0.00,,,0.00,Wunderground v.1.15,2013-01-16 16:45:00,
2013-01-16 10:50:00,36.3,32.8,29.65,WSW,253,7.0,7.0,87,0.00,,,0.00,Wunderground v.1.15,2013-01-16 16:50:00,
2013-01-16 10:55:00,36.4,32.9,29.65,WSW,257,6.0,10.0,87,0.00,,,0.00,Wunderground v.1.15,2013-01-16 16:55:00,
2013-01-16 11:00:00,36.5,32.7,29.66,West,262,7.0,7.0,86,0.00,,,0.00,Wunderground v.1.15,2013-01-16 17:00:00,
2013-01-16 11:05:00,36.5,32.7,29.66,WNW,283,6.0,7.0,86,0.00,,,0.00,Wunderground v.1.15,2013-01-16 17:05:00,
2013-01-16 11:10:00,36.4,32.6,29.66,WNW,293,6.0,6.0,86,0.00,,,0.00,Wunderground v.1.15,2013-01-16 17:10:00,
2013-01-16 11:15:00,36.5,32.7,29.66,West,277,5.0,6.0,86,0.00,,,0.00,Wunderground v.1.15,2013-01-16 17:15:00,
2013-01-16 11:21:00,36.4,32.6,29.66,WNW,296,5.0,10.0,86,0.00,,,0.00,Wunderground v.1.15,2013-01-16 17:21:00,
2013-01-16 11:26:00,36.2,32.4,29.66,WNW,285,5.0,10.0,86,0.00,,,0.00,Wunderground v.1.15,2013-01-16 17:26:00,
2013-01-16 11:31:00,36.1,32.3,29.67,West,278,4.0,5.0,86,0.00,,,0.00,Wunderground v.1.15,2013-01-16 17:31:00,
2013-01-16 11:36:00,36.0,32.2,29.67,West,277,4.0,7.0,86,0.00,,,0.00,Wunderground v.1.15,2013-01-16 17:36:00,
2013-01-16 11:41:00,36.0,32.2,29.67,WNW,288,4.0,5.0,86,0.00,,,0.00,Wunderground v.1.15,2013-01-16 17:41:00,
2013-01-16 11:46:00,36.0,32.2,29.66,West,277,4.0,6.0,86,0.00,,,0.00,Wunderground v.1.15,2013-01-16 17:46:00,
2013-01-16 11:52:00,36.1,32.3,29.66,West,281,4.0,7.0,86,0.00,,,0.00,Wunderground v.1.15,2013-01-16 17:52:00,
2013-01-16 11:57:00,36.3,32.5,29.66,West,281,4.0,7.0,86,0.00,,,0.00,Wunderground v.1.15,2013-01-16 17:57:00,
2013-01-16 12:02:00,36.3,32.2,29.66,West,269,4.0,7.0,85,0.00,,,0.00,Wunderground v.1.15,2013-01-16 18:02:00,
2013-01-16 12:07:00,36.2,32.1,29.67,West,264,5.0,10.0,85,0.00,,,0.00,Wunderground v.1.15,2013-01-16 18:07:00,
2013-01-16 12:12:00,36.1,32.0,29.67,West,273,5.0,6.0,85,0.00,,,0.00,Wunderground v.1.15,2013-01-16 18:12:00,
2013-01-16 12:17:00,35.9,32.1,29.67,WNW,287,5.0,6.0,86,0.00,,,0.00,Wunderground v.1.15,2013-01-16 18:17:00,
2013-01-16 12:23:00,35.3,31.8,29.67,WNW,302,4.0,5.0,87,0.00,,,0.00,Wunderground v.1.15,2013-01-16 18:23:00,
2013-01-16 12:28:00,34.8,31.6,29.67,West,265,3.0,5.0,88,0.00,,,0.00,Wunderground v.1.15,2013-01-16 18:28:00,
2013-01-16 12:33:00,34.3,31.7,29.68,WNW,283,3.0,5.0,90,0.00,,,0.00,Wunderground v.1.15,2013-01-16 18:33:00,
2013-01-16 12:38:00,33.9,31.6,29.68,NW,305,3.0,5.0,91,0.00,,,0.00,Wunderground v.1.15,2013-01-16 18:38:00,
2013-01-16 12:43:00,33.6,31.5,29.68,NNW,328,2.0,4.0,92,0.00,,,0.00,Wunderground v.1.15,2013-01-16 18:43:00,
2013-01-16 12:49:00,33.2,31.1,29.69,WNW,296,2.0,4.0,92,0.00,,,0.00,Wunderground v.1.15,2013-01-16 18:49:00,
2013-01-16 12:54:00,32.8,30.7,29.69,NW,309,2.0,4.0,92,0.00,,,0.00,Wunderground v.1.15,2013-01-16 18:54:00,
2013-01-16 12:59:00,32.5,30.7,29.70,WNW,285,2.0,4.0,93,0.00,,,0.00,Wunderground v.1.15,2013-01-16 18:59:00,
2013-01-16 13:04:00,32.3,30.5,29.70,NW,310,2.0,4.0,93,0.00,,,0.00,Wunderground v.1.15,2013-01-16 19:04:00,
2013-01-16 13:09:00,32.3,30.5,29.70,NW,306,2.0,4.0,93,0.00,,,0.00,Wunderground v.1.15,2013-01-16 19:09:00,
2013-01-16 13:15:00,32.0,30.2,29.70,NW,315,2.0,3.0,93,0.00,,,0.00,Wunderground v.1.15,2013-01-16 19:15:00,
2013-01-16 13:20:00,31.7,29.9,29.70,NW,315,2.0,2.0,93,0.00,,,0.00,Wunderground v.1.15,2013-01-16 19:20:00,
2013-01-16 13:25:00,31.5,29.7,29.70,NW,310,2.0,5.0,93,0.00,,,0.00,Wunderground v.1.15,2013-01-16 19:25:00,
2013-01-16 13:30:00,31.3,29.5,29.70,WNW,298,2.0,2.0,93,0.00,,,0.00,Wunderground v.1.15,2013-01-16 19:30:00,
2013-01-16 13:35:00,31.2,29.4,29.71,NW,316,2.0,4.0,93,0.00,,,0.00,Wunderground v.1.15,2013-01-16 19:35:00,
2013-01-16 13:41:00,31.0,29.2,29.71,WSW,249,2.0,4.0,93,0.00,,,0.00,Wunderground v.1.15,2013-01-16 19:41:00,
2013-01-16 13:46:00,30.9,29.1,29.71,NNW,330,2.0,4.0,93,0.00,,,0.00,Wunderground v.1.15,2013-01-16 19:46:00,
2013-01-16 13:51:00,30.8,29.3,29.71,NW,305,2.0,3.0,94,0.00,,,0.00,Wunderground v.1.15,2013-01-16 19:51:00,
2013-01-16 13:56:00,30.6,28.8,29.71,West,281,2.0,4.0,93,0.00,,,0.00,Wunderground v.1.15,2013-01-16 19:56:00,
2013-01-16 14:01:00,30.4,28.6,29.72,NW,307,2.0,2.0,93,0.00,,,0.00,Wunderground v.1.15,2013-01-16 20:01:00,
2013-01-16 14:07:00,30.5,29.0,29.72,NW,308,2.0,4.0,94,0.00,,,0.00,Wunderground v.1.15,2013-01-16 20:07:00,
2013-01-16 14:12:00,30.3,28.5,29.72,WNW,301,2.0,2.0,93,0.00,,,0.00,Wunderground v.1.15,2013-01-16 20:12:00,
2013-01-16 14:17:00,30.1,28.3,29.72,NW,305,2.0,3.0,93,0.00,,,0.00,Wunderground v.1.15,2013-01-16 20:17:00,
2013-01-16 14:22:00,30.0,28.2,29.73,NNW,328,2.0,2.0,93,0.00,,,0.00,Wunderground v.1.15,2013-01-16 20:22:00,
2013-01-16 14:27:00,30.0,28.5,29.73,West,269,1.0,2.0,94,0.00,,,0.00,Wunderground v.1.15,2013-01-16 20:27:00,
2013-01-16 14:33:00,29.8,28.0,29.74,NNW,328,2.0,4.0,93,0.00,,,0.00,Wunderground v.1.15,2013-01-16 20:33:00,
2013-01-16 14:38:00,29.6,27.8,29.74,WNW,302,2.0,4.0,93,0.00,,,0.00,Wunderground v.1.15,2013-01-16 20:38:00,
2013-01-16 14:43:00,29.6,28.1,29.75,WNW,297,2.0,4.0,94,0.00,,,0.00,Wunderground v.1.15,2013-01-16 20:43:00,
2013-01-16 14:48:00,29.5,27.7,29.75,WNW,290,2.0,4.0,93,0.00,,,0.00,Wunderground v.1.15,2013-01-16 20:48:00,
2013-01-16 14:53:00,29.3,27.8,29.76,NW,316,2.0,4.0,94,0.00,,,0.00,Wunderground v.1.15,2013-01-16 20:53:00,
2013-01-16 14:59:00,29.3,27.8,29.76,NW,316,2.0,4.0,94,0.00,,,0.00,Wunderground v.1.15,2013-01-16 20:59:00,
2013-01-16 15:04:00,29.3,27.8,29.76,NW,315,2.0,3.0,94,0.00,,,0.00,Wunderground v.1.15,2013-01-16 21:04:00,
2013-01-16 15:09:00,29.3,27.8,29.77,NNW,328,2.0,3.0,94,0.00,,,0.00,Wunderground v.1.15,2013-01-16 21:09:00,
2013-01-16 15:14:00,29.3,27.8,29.77,North,350,1.0,1.0,94,0.00,,,0.00,Wunderground v.1.15,2013-01-16 21:14:00,
2013-01-16 15:19:00,29.3,27.8,29.77,NNW,342,1.0,1.0,94,0.00,,,0.00,Wunderground v.1.15,2013-01-16 21:19:00,
2013-01-16 15:25:00,29.0,27.5,29.78,NNW,343,1.0,4.0,94,0.00,,,0.00,Wunderground v.1.15,2013-01-16 21:25:00,
2013-01-16 15:30:00,28.9,27.1,29.78,NNW,333,2.0,2.0,93,0.00,,,0.00,Wunderground v.1.15,2013-01-16 21:30:00,
2013-01-16 15:35:00,28.6,26.8,29.79,NNW,335,1.0,2.0,93,0.00,,,0.00,Wunderground v.1.15,2013-01-16 21:35:00,
2013-01-16 15:40:00,28.5,26.7,29.80,NW,304,1.0,3.0,93,0.00,,,0.00,Wunderground v.1.15,2013-01-16 21:40:00,
2013-01-16 15:45:00,28.2,26.2,29.80,NW,323,2.0,3.0,92,0.00,,,0.00,Wunderground v.1.15,2013-01-16 21:45:00,
2013-01-16 15:50:00,28.0,26.0,29.81,NW,314,2.0,2.0,92,0.00,,,0.00,Wunderground v.1.15,2013-01-16 21:50:00,
2013-01-16 15:55:00,28.0,25.7,29.80,NW,307,2.0,2.0,91,0.00,,,0.00,Wunderground v.1.15,2013-01-16 21:55:00,
2013-01-16 16:01:00,28.0,25.7,29.81,NW,304,2.0,2.0,91,0.00,,,0.00,Wunderground v.1.15,2013-01-16 22:01:00,
2013-01-16 16:06:00,27.9,25.6,29.81,North,349,1.0,2.0,91,0.00,,,0.00,Wunderground v.1.15,2013-01-16 22:06:00,
2013-01-16 16:11:00,27.9,25.3,29.82,North,360,1.0,1.0,90,0.00,,,0.00,Wunderground v.1.15,2013-01-16 22:11:00,
2013-01-16 16:16:00,27.8,25.0,29.82,WNW,295,1.0,6.0,89,0.00,,,0.00,Wunderground v.1.15,2013-01-16 22:16:00,
2013-01-16 16:21:00,27.8,25.2,29.82,NW,318,2.0,3.0,90,0.00,,,0.00,Wunderground v.1.15,2013-01-16 22:21:00,
2013-01-16 16:26:00,27.8,25.2,29.83,NW,321,2.0,3.0,90,0.00,,,0.00,Wunderground v.1.15,2013-01-16 22:26:00,
2013-01-16 16:31:00,27.8,25.0,29.84,WNW,302,2.0,2.0,89,0.00,,,0.00,Wunderground v.1.15,2013-01-16 22:31:00,
2013-01-16 16:36:00,27.5,24.7,29.85,NW,311,2.0,3.0,89,0.00,,,0.00,Wunderground v.1.15,2013-01-16 22:36:00,
2013-01-16 16:42:00,27.2,24.4,29.85,NW,322,2.0,2.0,89,0.00,,,0.00,Wunderground v.1.15,2013-01-16 22:42:00,
2013-01-16 16:47:00,26.9,23.8,29.86,NW,319,2.0,7.0,88,0.00,,,0.00,Wunderground v.1.15,2013-01-16 22:47:00,
2013-01-16 16:52:00,26.7,23.4,29.87,NW,312,2.0,3.0,87,0.00,,,0.00,Wunderground v.1.15,2013-01-16 22:52:00,
2013-01-16 16:57:00,26.4,23.1,29.87,NW,322,2.0,3.0,87,0.00,,,0.00,Wunderground v.1.15,2013-01-16 22:57:00,
2013-01-16 17:02:00,26.2,22.9,29.87,NW,309,2.0,4.0,87,0.00,,,0.00,Wunderground v.1.15,2013-01-16 23:02:00,
2013-01-16 17:08:00,25.9,22.6,29.88,NW,305,1.0,4.0,87,0.00,,,0.00,Wunderground v.1.15,2013-01-16 23:08:00,
2013-01-16 17:13:00,25.8,22.5,29.88,WNW,302,2.0,2.0,87,0.00,,,0.00,Wunderground v.1.15,2013-01-16 23:13:00,
2013-01-16 17:18:00,25.6,22.3,29.88,WNW,303,2.0,3.0,87,0.00,,,0.00,Wunderground v.1.15,2013-01-16 23:18:00,
2013-01-16 17:23:00,25.4,22.1,29.88,WNW,294,2.0,2.0,87,0.00,,,0.00,Wunderground v.1.15,2013-01-16 23:23:00,
2013-01-16 17:28:00,25.2,21.9,29.89,NW,312,2.0,3.0,87,0.00,,,0.00,Wunderground v.1.15,2013-01-16 23:28:00,
2013-01-16 17:34:00,25.0,21.7,29.89,WNW,287,2.0,3.0,87,0.00,,,0.00,Wunderground v.1.15,2013-01-16 23:34:00,
2013-01-16 17:39:00,24.9,21.6,29.89,WNW,295,2.0,5.0,87,0.00,,,0.00,Wunderground v.1.15,2013-01-16 23:39:00,
2013-01-16 17:44:00,24.8,20.9,29.90,NW,314,2.0,2.0,85,0.00,,,0.00,Wunderground v.1.15,2013-01-16 23:44:00,
2013-01-16 17:49:00,24.5,20.4,29.90,NW,318,2.0,2.0,84,0.00,,,0.00,Wunderground v.1.15,2013-01-16 23:49:00,
2013-01-16 17:54:00,24.3,18.4,29.91,ENE,60,1.0,3.0,78,0.00,,,0.00,Wunderground v.1.15,2013-01-16 23:54:00,
2013-01-16 17:59:00,24.1,17.6,29.91,NE,36,1.0,3.0,76,0.00,,,0.00,Wunderground v.1.15,2013-01-16 23:59:00,
2013-01-16 18:05:00,23.8,17.3,29.92,North,356,1.0,1.0,76,0.00,,,0.00,Wunderground v.1.15,2013-01-17 00:05:00,
2013-01-16 18:10:00,23.3,16.5,29.92,NNW,346,0.0,1.0,75,0.00,,,0.00,Wunderground v.1.15,2013-01-17 00:10:00,
2013-01-16 18:15:00,23.1,16.4,29.93,NNW,337,0.0,1.0,75,0.00,,,0.00,Wunderground v.1.15,2013-01-17 00:15:00,
2013-01-16 18:20:00,22.8,15.8,29.93,NW,325,0.0,1.0,74,0.00,,,0.00,Wunderground v.1.15,2013-01-17 00:20:00,
2013-01-16 18:25:00,22.7,15.3,29.93,NW,309,0.0,3.0,73,0.00,,,0.00,Wunderground v.1.15,2013-01-17 00:25:00,
2013-01-16 18:31:00,22.5,13.9,29.94,NNW,342,1.0,1.0,69,0.00,,,0.00,Wunderground v.1.15,2013-01-17 00:31:00,
2013-01-16 18:36:00,22.5,12.8,29.95,NW,321,1.0,2.0,66,0.00,,,0.00,Wunderground v.1.15,2013-01-17 00:36:00,
2013-01-16 18:41:00,22.4,12.4,29.95,West,263,2.0,3.0,65,0.00,,,0.00,Wunderground v.1.15,2013-01-17 00:41:00,
2013-01-16 18:46:00,22.3,12.7,29.96,NW,322,1.0,3.0,66,0.00,,,0.00,Wunderground v.1.15,2013-01-17 00:46:00,
2013-01-16 18:51:00,22.1,11.8,29.97,NW,305,1.0,1.0,64,0.00,,,0.00,Wunderground v.1.15,2013-01-17 00:51:00,
2013-01-16 18:57:00,21.9,11.6,29.98,NW,314,1.0,2.0,64,0.00,,,0.00,Wunderground v.1.15,2013-01-17 00:57:00,
2013-01-16 19:02:00,21.6,11.3,29.99,NNW,333,1.0,1.0,64,0.00,,,0.00,Wunderground v.1.15,2013-01-17 01:02:00,
2013-01-16 19:07:00,21.5,10.8,29.99,NW,321,1.0,1.0,63,0.00,,,0.00,Wunderground v.1.15,2013-01-17 01:07:00,
2013-01-16 19:12:00,21.3,10.7,30.00,NNW,328,1.0,4.0,63,0.00,,,0.00,Wunderground v.1.15,2013-01-17 01:12:00,
2013-01-16 19:17:00,21.2,10.6,30.00,NW,314,2.0,4.0,63,0.00,,,0.00,Wunderground v.1.15,2013-01-17 01:17:00,
2013-01-16 19:23:00,20.9,10.6,30.01,North,353,1.0,1.0,64,0.00,,,0.00,Wunderground v.1.15,2013-01-17 01:23:00,
2013-01-16 19:28:00,20.8,10.5,30.01,NW,316,1.0,1.0,64,0.00,,,0.00,Wunderground v.1.15,2013-01-17 01:28:00,
2013-01-16 19:33:00,20.6,10.3,30.02,WNW,297,1.0,2.0,64,0.00,,,0.00,Wunderground v.1.15,2013-01-17 01:33:00,
2013-01-16 19:38:00,20.5,9.9,30.02,WNW,295,1.0,4.0,63,0.00,,,0.00,Wunderground v.1.15,2013-01-17 01:38:00,
2013-01-16 19:43:00,20.3,10.1,30.02,NNW,346,1.0,3.0,64,0.00,,,0.00,Wunderground v.1.15,2013-01-17 01:43:00,
2013-01-16 19:49:00,20.2,10.0,30.02,North,354,1.0,3.0,64,0.00,,,0.00,Wunderground v.1.15,2013-01-17 01:49:00,
2013-01-16 19:54:00,20.0,9.8,30.02,NW,307,1.0,1.0,64,0.00,,,0.00,Wunderground v.1.15,2013-01-17 01:54:00,
2013-01-16 19:59:00,19.7,9.5,30.03,NW,304,0.0,1.0,64,0.00,,,0.00,Wunderground v.1.15,2013-01-17 01:59:00,
2013-01-16 20:04:00,19.6,9.7,30.03,WNW,302,0.0,1.0,65,0.00,,,0.00,Wunderground v.1.15,2013-01-17 02:04:00,
2013-01-16 20:09:00,19.5,9.3,30.03,NW,307,1.0,1.0,64,0.00,,,0.00,Wunderground v.1.15,2013-01-17 02:09:00,
2013-01-16 20:15:00,19.4,9.5,30.03,NW,312,1.0,1.0,65,0.00,,,0.00,Wunderground v.1.15,2013-01-17 02:15:00,
2013-01-16 20:20:00,19.3,9.4,30.03,NW,310,1.0,2.0,65,0.00,,,0.00,Wunderground v.1.15,2013-01-17 02:20:00,
2013-01-16 20:25:00,19.2,9.0,30.03,NW,307,1.0,3.0,64,0.00,,,0.00,Wunderground v.1.15,2013-01-17 02:25:00,
2013-01-16 20:30:00,19.0,8.8,30.03,NW,304,1.0,1.0,64,0.00,,,0.00,Wunderground v.1.15,2013-01-17 02:30:00,
2013-01-16 20:35:00,18.9,8.7,30.03,NW,311,1.0,1.0,64,0.00,,,0.00,Wunderground v.1.15,2013-01-17 02:35:00,
2013-01-16 20:40:00,18.8,9.0,30.04,WNW,295,1.0,1.0,65,0.00,,,0.00,Wunderground v.1.15,2013-01-17 02:40:00,
2013-01-16 20:45:00,17.9,8.1,30.05,West,268,1.0,1.0,65,0.00,,,0.00,Wunderground v.1.15,2013-01-17 02:45:00,
2013-01-16 20:50:00,17.1,8.7,30.05,SW,232,1.0,1.0,69,0.00,,,0.00,Wunderground v.1.15,2013-01-17 02:50:00,
2013-01-16 20:55:00,16.7,9.5,30.05,West,276,1.0,4.0,73,0.00,,,0.00,Wunderground v.1.15,2013-01-17 02:55:00,
2013-01-16 21:00:00,16.3,10.1,30.05,West,276,1.0,1.0,76,0.00,,,0.00,Wunderground v.1.15,2013-01-17 03:00:00,
2013-01-16 21:06:00,16.0,10.1,30.05,West,270,1.0,2.0,77,0.00,,,0.00,Wunderground v.1.15,2013-01-17 03:06:00,
2013-01-16 21:11:00,15.6,9.7,30.05,WSW,252,1.0,1.0,77,0.00,,,0.00,Wunderground v.1.15,2013-01-17 03:11:00,
2013-01-16 21:16:00,15.2,9.3,30.06,WSW,249,1.0,4.0,77,0.00,,,0.00,Wunderground v.1.15,2013-01-17 03:16:00,
2013-01-16 21:21:00,15.0,9.4,30.06,West,273,2.0,2.0,78,0.00,,,0.00,Wunderground v.1.15,2013-01-17 03:21:00,
2013-01-16 21:26:00,14.8,9.2,30.06,West,274,2.0,2.0,78,0.00,,,0.00,Wunderground v.1.15,2013-01-17 03:26:00,
2013-01-16 21:31:00,14.7,9.1,30.06,NW,305,1.0,2.0,78,0.00,,,0.00,Wunderground v.1.15,2013-01-17 03:31:00,
2013-01-16 21:36:00,14.7,9.1,30.06,NW,310,2.0,2.0,78,0.00,,,0.00,Wunderground v.1.15,2013-01-17 03:36:00,
2013-01-16 21:42:00,14.7,8.8,30.06,WNW,300,2.0,2.0,77,0.00,,,0.00,Wunderground v.1.15,2013-01-17 03:42:00,
2013-01-16 21:47:00,14.4,8.5,30.07,West,278,1.0,2.0,77,0.00,,,0.00,Wunderground v.1.15,2013-01-17 03:47:00,
2013-01-16 21:52:00,14.0,8.1,30.07,West,271,1.0,3.0,77,0.00,,,0.00,Wunderground v.1.15,2013-01-17 03:52:00,
2013-01-16 21:57:00,13.8,7.9,30.07,WNW,284,2.0,3.0,77,0.00,,,0.00,Wunderground v.1.15,2013-01-17 03:57:00,
2013-01-16 22:02:00,13.5,7.6,30.08,NW,314,2.0,2.0,77,0.00,,,0.00,Wunderground v.1.15,2013-01-17 04:02:00,
2013-01-16 22:07:00,13.6,7.7,30.08,WNW,287,1.0,2.0,77,0.00,,,0.00,Wunderground v.1.15,2013-01-17 04:07:00,
2013-01-16 22:13:00,13.4,7.2,30.08,WNW,285,1.0,4.0,76,0.00,,,0.00,Wunderground v.1.15,2013-01-17 04:13:00,
2013-01-16 22:18:00,13.2,7.0,30.08,WNW,300,1.0,4.0,76,0.00,,,0.00,Wunderground v.1.15,2013-01-17 04:18:00,
2013-01-16 22:23:00,13.0,6.6,30.08,West,280,1.0,2.0,75,0.00,,,0.00,Wunderground v.1.15,2013-01-17 04:23:00,
2013-01-16 22:28:00,12.9,6.5,30.09,NW,314,1.0,3.0,75,0.00,,,0.00,Wunderground v.1.15,2013-01-17 04:28:00,
2013-01-16 22:33:00,12.6,6.2,30.09,NW,314,1.0,3.0,75,0.00,,,0.00,Wunderground v.1.15,2013-01-17 04:33:00,
2013-01-16 22:39:00,12.5,6.1,30.10,WNW,287,1.0,3.0,75,0.00,,,0.00,Wunderground v.1.15,2013-01-17 04:39:00,
2013-01-16 22:44:00,12.4,6.0,30.10,West,277,1.0,5.0,75,0.00,,,0.00,Wunderground v.1.15,2013-01-17 04:44:00,
2013-01-16 22:49:00,12.2,5.8,30.10,WNW,297,1.0,5.0,75,0.00,,,0.00,Wunderground v.1.15,2013-01-17 04:49:00,
2013-01-16 22:55:00,12.0,5.3,30.10,NW,304,1.0,2.0,74,0.00,,,0.00,Wunderground v.1.15,2013-01-17 04:55:00,
2013-01-16 23:00:00,11.9,5.2,30.11,NW,305,1.0,1.0,74,0.00,,,0.00,Wunderground v.1.15,2013-01-17 05:00:00,
2013-01-16 23:01:00,11.9,5.2,30.10,NW,305,1.0,2.0,74,0.00,,,0.00,Wunderground v.1.15,2013-01-17 05:01:00,
2013-01-16 23:02:00,11.9,5.2,30.11,NW,309,1.0,2.0,74,0.00,,,0.00,Wunderground v.1.15,2013-01-17 05:02:00,
2013-01-16 23:03:00,11.9,5.2,30.10,NW,314,1.0,2.0,74,0.00,,,0.00,Wunderground v.1.15,2013-01-17 05:03:00,
2013-01-16 23:07:00,11.8,5.1,30.11,NW,316,2.0,3.0,74,0.00,,,0.00,Wunderground v.1.15,2013-01-17 05:07:00,
2013-01-16 23:12:00,11.8,4.8,30.11,WNW,302,2.0,2.0,73,0.00,,,0.00,Wunderground v.1.15,2013-01-17 05:12:00,
2013-01-16 23:17:00,11.7,4.7,30.11,WNW,302,2.0,3.0,73,0.00,,,0.00,Wunderground v.1.15,2013-01-17 05:17:00,
2013-01-16 23:22:00,11.6,4.3,30.11,NW,318,2.0,5.0,72,0.00,,,0.00,Wunderground v.1.15,2013-01-17 05:22:00,
2013-01-16 23:27:00,11.5,3.9,30.11,NNW,332,1.0,5.0,71,0.00,,,0.00,Wunderground v.1.15,2013-01-17 05:27:00,
2013-01-16 23:32:00,11.5,3.9,30.12,NNW,328,2.0,2.0,71,0.00,,,0.00,Wunderground v.1.15,2013-01-17 05:32:00,
2013-01-16 23:37:00,11.3,3.7,30.12,WNW,283,1.0,2.0,71,0.00,,,0.00,Wunderground v.1.15,2013-01-17 05:37:00,
2013-01-16 23:43:00,11.1,3.5,30.12,NW,310,1.0,1.0,71,0.00,,,0.00,Wunderground v.1.15,2013-01-17 05:43:00,
2013-01-16 23:48:00,10.9,3.3,30.12,West,273,1.0,1.0,71,0.00,,,0.00,Wunderground v.1.15,2013-01-17 05:48:00,
2013-01-16 23:53:00,10.9,3.3,30.13,NW,316,1.0,2.0,71,0.00,,,0.00,Wunderground v.1.15,2013-01-17 05:53:00,
2013-01-16 23:58:00,10.7,3.1,30.12,NW,309,1.0,2.0,71,0.00,,,0.00,Wunderground v.1.15,2013-01-17 05:58:00,